Flag for Australia Weather past 2 weeks in Rockhampton, Queensland, Australia

66 °F

Passing clouds.

Feels Like: 66 °F
Forecast: 68 / 78 °F
Wind: 12 mph from Southeast

Location: Rockhampton Airport

Current Time: Oct 10, 2015 at 3:54:16 AM

Latest Report: Oct 10, 2015 at 3:00 AM

Visibility: N/A

Pressure: 30.21 "Hg

Humidity: 83%

Dew point: 61 °F

Location of RockhamptonLocation

Historic Weather in Rockhampton — Graph


Rockhampton temperature yesterday

Maximum temperature yesterday: 81 °F (at 11:00 AM)
Minimum temperature yesterday: 64 °F (at 3:30 AM)
Average temperature yesterday: 73 °F

Past Weeks' High & Low Weather Summary

High88 °F (Oct 5, 1:30 PM)94% (Sep 28, 1:00 AM)30.42 "Hg (Sep 28, 1:00 AM)
Low54 °F (Sep 26, 6:00 AM)13% (Oct 5, 2:00 PM)30.01 "Hg (Sep 25, 3:00 PM)
Average71 °F63%30.20 "Hg
* Reported Sep 25 3:00 AM — Oct 10 3:00 AM, Rockhampton, Weather by CustomWeather, © 2015

Note: Actual official high and low records may vary slightly from our data, if they occured in-between our weather recording intervals... More about our weather records


Rockhampton weather history for previous 24 hours

Time TempWeatherWind HumidityBarometerVisibility
3:00 AM
Sat, Oct 10
66 °FPassing clouds.12 mph83%30.21 "HgN/A
2:00 AM68 °FMostly cloudy.9 mph78%30.24 "HgN/A
1:30 AM68 °FOvercast.8 mph78%30.24 "HgN/A
1:00 AM68 °FPartly cloudy.8 mph83%30.24 "HgN/A
12:00 AM66 °FOvercast.7 mph94%30.27 "HgN/A
11:01 PM
Fri, Oct 9
68 °FPartly cloudy.6 mph83%30.27 "Hg4 mi
10:00 PM70 °FPassing clouds.8 mph73%30.30 "HgN/A
9:30 PM70 °FPassing clouds.7 mph73%30.30 "HgN/A
9:00 PM70 °FPassing clouds.9 mph73%30.30 "HgN/A
8:30 PM70 °FPassing clouds.9 mph73%30.30 "HgN/A
8:00 PM70 °FPassing clouds.8 mph73%30.30 "HgN/A
7:30 PM72 °FPassing clouds.9 mph61%30.27 "HgN/A
7:00 PM72 °FPassing clouds.14 mph61%30.27 "HgN/A
6:30 PM73 °FPassing clouds.13 mph53%30.27 "HgN/A
6:00 PM73 °FPassing clouds.14 mph50%30.24 "HgN/A
5:30 PM75 °FPassing clouds.15 mph47%30.24 "HgN/A
5:00 PM77 °FPassing clouds.18 mph42%30.24 "HgN/A
4:30 PM77 °FSunny.17 mph44%30.21 "Hg10 mi
4:05 PM79 °FSunny.20 mph39%30.21 "Hg10 mi
4:00 PM77 °FSunny.20 mph42%30.21 "Hg10 mi
3:30 PM79 °FSunny.21 mph37%30.21 "Hg10 mi
3:00 PM81 °FSunny.18 mph34%30.21 "Hg10 mi
2:30 PM81 °FSunny.22 mph37%30.21 "Hg10 mi
2:03 PM81 °FScattered clouds.17 mph37%30.21 "HgN/A
1:30 PM81 °FBroken clouds.20 mph37%30.24 "HgN/A
1:00 PM81 °FSunny.16 mph39%30.24 "Hg10 mi
12:01 PM81 °FSunny.18 mph37%30.27 "Hg10 mi
11:30 AM79 °FSunny.18 mph39%30.30 "Hg10 mi
11:00 AM81 °FSunny.18 mph39%30.30 "Hg10 mi
10:46 AM77 °FSunny.17 mph44%30.30 "Hg10 mi
10:00 AM79 °FSunny.18 mph45%30.33 "Hg10 mi
9:30 AM77 °FSunny.17 mph47%30.33 "Hg10 mi
9:02 AM75 °FPartly sunny.18 mph54%30.33 "HgN/A
8:30 AM72 °FScattered clouds.14 mph69%30.33 "HgN/A
8:00 AM72 °FPartly sunny.12 mph69%30.33 "HgN/A
7:30 AM68 °FPartly sunny.9 mph78%30.33 "HgN/A
7:00 AM66 °FScattered clouds.12 mph83%30.30 "HgN/A
6:30 AM66 °FPassing clouds.9 mph88%30.30 "HgN/A
6:00 AM66 °FScattered clouds.8 mph88%30.27 "HgN/A
5:30 AM66 °FPartly sunny.9 mph83%30.27 "HgN/A
5:00 AM66 °FSprinkles. Scattered clouds.10 mph88%30.27 "HgN/A
4:00 AM64 °FPartly cloudy.12 mph94%30.27 "HgN/A
3:30 AM64 °FSprinkles. Partly cloudy.14 mph94%30.27 "Hg2 mi
3:00 AM66 °FSprinkles. Partly cloudy.10 mph83%30.24 "HgN/A
Weather by CustomWeather, © 2015

See weather overviewHow to use our weather pages